Weather History for Missoula, MT

Change the Weather History Date:

Wednesday, July 18, 2012

  Actual Average Record
Temperature  
Mean Temperature 75 °F 70 °F  
Max Temperature 94 °F 87 °F 102 °F (1960)
Min Temperature 55 °F 52 °F 37 °F (1986)
Degree Days  
Heating Degree Days 0 1  
Month to date heating degree days 11 29  
Since 1 June heating degree days 202 189  
Since 1 July heating degree days 11 29  
Cooling Degree Days 10 5  
Month to date cooling degree days 125 74  
Year to date cooling degree days 155 117  
Since 1 June cooling degree days 155 111  
Growing Degree Days 24 (Base 50)    
Moisture  
Dew Point 53 °F    
Average Humidity 57    
Maximum Humidity 93    
Minimum Humidity 20    
Precipitation  
Precipitation 0.00 in 0.03 in 0.55 in (1897)
Month to date precipitation 0.84 0.63  
Year to date precipitation 10.05 8.48  
Snow  
Snow 0.00 in - - ()
Month to date snowfall 0.0  
Year to date snowfall 29.2  
Since 1 July snowfall 0.0  
Snow Depth 0.00 in    
Sea Level Pressure  
Sea Level Pressure 29.89 in    
Wind  
Wind Speed 4 mph (NNW)    
Max Wind Speed 17 mph    
Max Gust Speed 24 mph    
Visibility 10 miles    
Events      
T = Trace of Precipitation, MM = Missing Value Source: NWS Daily Summary

Daily Weather History Graph

Daily Weather History Graph

Search for Another Location

Airport:

Trip Planner

Search our weather history database for the weather conditions in past years. The results will help you decide how hot, cold, wet, or windy it might be!

Date:

Astronomy

Jul. 18, 2012 Rise Set
Actual Time 6:00 AM MDT 9:24 PM MDT
Civil Twilight 5:23 AM MDT 10:01 PM MDT
Nautical Twilight 4:33 AM MDT 10:50 PM MDT
Astronomical Twilight 3:29 AM MDT 11:53 PM MDT
Moon 5:41 AM MDT (7/18) 8:51 PM MDT (7/18)
Length of Visible Light 16h 38m
Length of Day
15h 23m
Waning Crescent, 0% of the Moon is Illuminated
Jul 18
Waning Crescent
Jul 18
New
Jul 26
First Quarter
Aug 1
Full
Aug 9
Last Quarter

Hourly Weather History & Observations

Time (MDT) Temp. Heat Index Dew Point Humidity Pressure Visibility Wind Dir Wind Speed Gust Speed Precip Events Conditions
12:04 AM 64.4 °F - 55.4 °F 73% 29.97 in 10.0 mi North 9.2 mph - N/A   Clear
12:53 AM 64.4 °F - 55.4 °F 73% 29.97 in 10.0 mi Calm Calm - N/A   Clear
1:53 AM 62.1 °F - 57.0 °F 84% 29.89 in 10.0 mi NE 4.6 mph - N/A   Clear
2:53 AM 59.0 °F - 55.0 °F 87% 29.90 in 10.0 mi Calm Calm - N/A   Clear
3:53 AM 57.9 °F - 55.0 °F 90% 29.90 in 10.0 mi Calm Calm - N/A   Clear
4:53 AM 57.0 °F - 54.0 °F 89% 29.91 in 10.0 mi Calm Calm - N/A   Clear
5:53 AM 55.0 °F - 52.0 °F 89% 29.93 in 10.0 mi Calm Calm - N/A   Clear
6:53 AM 57.0 °F - 53.1 °F 87% 29.94 in 10.0 mi Calm Calm - N/A   Clear
7:11 AM 55.4 °F - 53.6 °F 94% 30.00 in 2.5 mi Calm Calm - N/A   Partly Cloudy
7:27 AM 57.2 °F - 53.6 °F 88% 30.01 in 6.0 mi Calm Calm - N/A   Scattered Clouds
7:53 AM 59.0 °F - 55.0 °F 87% 29.96 in 10.0 mi Calm Calm - N/A   Clear
8:53 AM 62.1 °F - 55.9 °F 80% 29.96 in 10.0 mi Calm Calm - N/A   Clear
9:53 AM 66.0 °F - 55.9 °F 70% 29.96 in 10.0 mi Calm Calm - N/A   Clear
10:53 AM 70.0 °F - 53.1 °F 55% 29.94 in 10.0 mi Calm Calm - N/A   Clear
11:53 AM 73.9 °F - 55.0 °F 52% 29.91 in 10.0 mi Calm Calm - N/A   Clear
12:53 PM 80.1 °F - 52.0 °F 38% 29.88 in 10.0 mi Variable 3.5 mph - N/A   Clear
1:53 PM 82.0 °F 81.2 °F 53.1 °F 37% 29.86 in 10.0 mi WSW 3.5 mph - N/A   Clear
2:53 PM 88.0 °F - 48.0 °F 25% 29.84 in 10.0 mi North 3.5 mph - N/A   Clear
3:53 PM 90.0 °F - 50.0 °F 25% 29.82 in 10.0 mi NW 6.9 mph - N/A   Clear
4:53 PM 91.9 °F - 51.1 °F 25% 29.79 in 10.0 mi NW 9.2 mph - N/A   Clear
5:53 PM 93.0 °F - 48.9 °F 22% 29.79 in 10.0 mi WNW 8.1 mph - N/A   Clear
6:53 PM 93.0 °F - 46.0 °F 20% 29.78 in 10.0 mi NNW 10.4 mph - N/A   Clear
7:53 PM 89.1 °F - 51.1 °F 27% 29.80 in 10.0 mi North 11.5 mph - N/A   Clear
8:53 PM 82.0 °F - 52.0 °F 35% 29.83 in 10.0 mi North 4.6 mph - N/A   Clear
9:53 PM 78.1 °F - 51.1 °F 39% 29.87 in 10.0 mi Calm Calm - N/A   Clear
10:53 PM 73.0 °F - 52.0 °F 48% 29.89 in 10.0 mi North 6.9 mph - N/A   Clear
11:53 PM 72.0 °F - 50.0 °F 46% 29.90 in 10.0 mi North 5.8 mph - N/A   Clear